Location: Windsor
(43.2292°N, 89.3015°W)
Time: 13:05:37
(UTC+00:00)

RS-44 - Pass Details

Date: 03 July 2022
Orbit: 1175 x 1510 km, 82.5° (Epoch: 12 August)

Event Time Altitude Azimuth Distance (km) Brightness Sun altitude
Rises 03:25:42 0° 219° (SW) 4,352 ? -14.8°
Reaches altitude 10° 03:28:45 10° 228° (SW) 3,432 ? -15.1°
Maximum altitude 03:36:06 35° 292° (WNW) 2,174 ? -15.9°
Drops below altitude 10° 03:43:54 10° 355° (N) 3,638 ? -16.6°
Sets 03:47:16 0° 4° (N) 4,645 ? -17.0°
